THORAD DELTA 1 DEB

Satellite information

Favourite Embed

Satellite Type and Status

DEBRISIN ORBIT

Key statistics

Satellite THORAD DELTA 1 DEB at a glance.

Uptime

18608

Days in orbit

Revolutions

≈ 13.3

Per day

Orbit

SSO

Sun Synchronous Orbit

Inclination

101.4

Latest

Satellite identification and parameters

Extended collection of information and parameters for THORAD DELTA 1 DEB.

Object identification

Identified? True

Debris? True

Object name: THORAD DELTA 1 DEB

International designator: 1974-089AH

Object number (NORAD): 8167

Object ID (CCSDS): 8167

Country: UNITED STATES OF AMERICA (US)

Current information (Y/N): Y

RCS size: SMALL

Orbital parameters

Period: 108.034 minutes

Inclination: 101.3551 deg

SMA: 7513.946 km

Apoapsis: 1223.664 km

Periapsis: 1047.957 km

RAAN: 128.2083 deg

Eccentricy: 0.0116921

Argument of periapsis: 85.5553 deg

Mean anomaly: 35.3081 deg

Mean motion: 13.32909611 rev/day

Mean motion (dot): 0.00004937 rev/day2

B* drag term: 0.0098267576 1/REarth

Two-line elements (TLE)

Creation date: Oct. 25, 2025, 10:45 a.m.

Reference frame: TEME

Reference center: EARTH

Epoch: Oct. 25, 2025, 2:44 a.m. UTC

TLE line 0: 0 THORAD DELTA 1 DEB

TLE line 1: 1 08167U 74089AH 25298.11408991 .00004937 00000-0 98268-2 0 9997

TLE line 2: 2 08167 101.3551 128.2083 0116921 85.5553 35.3081 13.32909611396042

Live tracking on map

Real-time ground track for satellite THORAD DELTA 1 DEB.

In-orbit conjunctions

A list of the most updated potential collisions computed for object THORAD DELTA 1 DEB.

Target Orbit TCA Probability of collision Miss distance Type
CZ-6A DEB LEO 2024-11-16 15:22:20 0.0001623357 296.0 (m) DEBRIS

Associated space launch

Meteorological satellite using radiometric imaging

THORAD DELTA 1 DEB was lifted into orbit during the mission ‘Delta 2310 | NOAA 4’, on board a Delta 2310 space rocket.

The launch took place on Nov. 15, 1974, 5:11 p.m. from Space Launch Complex 2W.

For more information about the launch, click the button.

Launch to space Delta 2310 | NOAA 4
Delta 2310 | NOAA 4

Agency: N/A

Status: Launch Successful

Launch date: Nov. 15, 1974, 5:11 p.m. UTC

Rocket: Delta 2310

Launch pad: Space Launch Complex 2W

Location: Vandenberg SFB, CA, USA

...

Latest news about this satellite

There are no fresh news available about this satellite. Check back as we update our databases every day.


Newsletter sign-up

Weekly statistics, charts and insights to help you stay on top of the space industry.